Brooksville, FL

8:21 AM EST on February 26, 2017 (GMT -0500)
Hernando County

Weather History for KBKV - November, 2012

Change the Weather History Date:

Sunday, November 11, 2012

  Actual Average Record
Temperature  
Mean Temperature 67 °F -  
Max Temperature 82 °F 75 °F 86 °F (2002)
Min Temperature 52 °F 51 °F 39 °F (1996)
Cooling Degree Days 2    
Growing Degree Days 17 (Base 50)    
Moisture  
Dew Point 56 °F    
Average Humidity 73    
Maximum Humidity 100    
Minimum Humidity 39    
Precipitation  
Precipitation 0.00 in - - ()
Sea Level Pressure  
Sea Level Pressure 30.27 in    
Wind  
Wind Speed 4 mph (ENE)    
Max Wind Speed 13 mph    
Max Gust Speed 21 mph    
Visibility 10 miles    
Events      
Averages and records for this station are not official NWS values.
T = Trace of Precipitation, MM = Missing Value Source: NWS Daily Summary

Daily Weather History Graph

Daily Weather History Graph

Search for Another Location

Airport or City:

Trip Planner

Search our weather history database for the weather conditions in past years. The results will help you decide how hot, cold, wet, or windy it might be!

Date:

Astronomy

Nov. 11, 2012 Rise Set
Actual Time 6:49 AM EST 5:38 PM EST
Civil Twilight 6:24 AM EST 6:02 PM EST
Nautical Twilight 5:56 AM EST 6:31 PM EST
Astronomical Twilight 5:28 AM EST 6:59 PM EST
Moon 4:12 AM EST (11/11) 3:53 PM EST (11/11)
Length of Visible Light 11h 38m
Length of Day
10h 48m
Waning Crescent, 7% of the Moon is Illuminated
Nov 11
Waning Crescent
Nov 13
New
Nov 20
First Quarter
Nov 28
Full
Dec 6
Last Quarter

Hourly Weather History & Observations

Time (EST) Temp. Heat Index Dew Point Humidity Pressure Visibility Wind Dir Wind Speed Gust Speed Precip Events Conditions
12:53 AM 52.0 °F - 52.0 °F 100% 30.29 in 10.0 mi Calm Calm - N/A   Clear
1:53 AM 53.1 °F - 51.1 °F 93% 30.28 in 10.0 mi Calm Calm - N/A   Clear
2:53 AM 55.0 °F - 53.1 °F 93% 30.27 in 10.0 mi Calm Calm - N/A   Partly Cloudy
3:53 AM 55.9 °F - 54.0 °F 93% 30.27 in 10.0 mi Calm Calm - N/A   Partly Cloudy
4:53 AM 55.0 °F - 53.1 °F 93% 30.27 in 10.0 mi Calm Calm - N/A   Clear
5:53 AM 55.9 °F - 54.0 °F 93% 30.27 in 10.0 mi NE 3.5 mph - N/A   Mostly Cloudy
6:53 AM 55.9 °F - 54.0 °F 93% 30.29 in 10.0 mi North 3.5 mph - N/A   Clear
7:53 AM 60.1 °F - 55.9 °F 86% 30.30 in 10.0 mi NE 4.6 mph - N/A   Clear
8:53 AM 66.9 °F - 57.9 °F 73% 30.32 in 10.0 mi NE 6.9 mph - N/A   Clear
9:53 AM 72.0 °F - 57.9 °F 61% 30.32 in 10.0 mi ENE 8.1 mph - N/A   Partly Cloudy
11:53 AM 80.1 °F 80.7 °F 59.0 °F 48% 30.28 in 10.0 mi East 10.4 mph 17.3 mph N/A   Partly Cloudy
1:53 PM 80.1 °F 80.1 °F 55.0 °F 42% 30.24 in 6.0 mi East 11.5 mph 20.7 mph N/A   Haze
2:49 PM 82.4 °F 81.7 °F 55.4 °F 39% 30.23 in 10.0 mi East 12.7 mph - N/A   Mostly Cloudy
2:53 PM 81.0 °F 80.7 °F 55.0 °F 41% 30.23 in 10.0 mi ENE 12.7 mph - N/A   Mostly Cloudy
3:53 PM 78.1 °F - 55.9 °F 46% 30.23 in 10.0 mi East 11.5 mph - N/A   Partly Cloudy
4:53 PM 77.0 °F - 57.0 °F 50% 30.23 in 10.0 mi East 5.8 mph - N/A   Clear
5:53 PM 72.0 °F - 57.0 °F 59% 30.24 in 10.0 mi East 8.1 mph - N/A   Clear
6:53 PM 71.1 °F - 59.0 °F 66% 30.27 in 10.0 mi ENE 9.2 mph - N/A   Clear
7:53 PM 68.0 °F - 60.1 °F 76% 30.28 in 10.0 mi East 5.8 mph - N/A   Scattered Clouds
8:53 PM 66.0 °F - 60.1 °F 81% 30.28 in 10.0 mi ENE 5.8 mph - N/A   Clear
9:53 PM 66.0 °F - 60.1 °F 81% 30.27 in 10.0 mi ENE 8.1 mph - N/A   Clear
10:53 PM 66.0 °F - 61.0 °F 84% 30.26 in 10.0 mi East 8.1 mph - N/A   Clear
11:53 PM 64.0 °F - 60.1 °F 87% 30.26 in 10.0 mi ENE 5.8 mph - N/A   Clear